z/d,0,0,50,50,100,100,200,200,300,300,400,400,500,500,750,750,1000,1000,2000,2000,3000,3000,4000,4000,4700,4700
2016.09.25-01:00,1.63,34.35,.68,42.81,.66,71.52,.45,80.12,.53,54.47,.66,48.74,.62,57.51,.47,55.07,.27,68.96,.20,63.32,.11,30.29,.10,21.84,.00,90.00
2016.09.25-02:00,1.74,43.91,.77,48.51,.65,73.85,.42,76.41,.55,53.04,.68,50.41,.61,57.89,.47,56.56,.26,68.70,.21,64.55,.14,34.68,.12,28.29,.01,90.00
2016.09.25-03:00,1.83,53.48,.84,55.16,.65,77.65,.41,71.74,.58,53.39,.70,52.94,.60,57.80,.47,55.55,.24,62.17,.22,64.73,.16,40.87,.14,36.75,.02,90.00
2016.09.25-04:00,1.82,62.73,.84,60.88,.61,83.00,.41,66.12,.63,54.28,.73,55.13,.61,56.80,.49,54.17,.25,52.09,.23,64.26,.18,46.06,.15,42.86,.02,90.00
2016.09.25-05:00,1.73,71.47,.81,65.66,.55,87.79,.42,58.89,.67,54.18,.76,56.06,.64,55.36,.52,55.37,.29,46.95,.24,64.53,.19,49.33,.15,44.64,.02,90.00
2016.09.25-06:00,1.60,81.48,.76,70.53,.47,90.83,.44,51.44,.69,53.26,.78,56.32,.67,54.50,.54,59.18,.33,47.33,.25,65.30,.19,50.39,.15,41.39,.02,90.00
2016.09.25-07:00,1.46,92.22,.71,75.76,.39,91.72,.47,44.71,.71,51.77,.79,56.10,.68,53.87,.54,63.47,.35,49.40,.24,66.15,.19,50.50,.14,35.85,.02,90.00
2016.09.25-08:00,1.25,102.71,.62,80.83,.30,88.08,.51,38.96,.73,49.88,.79,55.19,.70,52.57,.51,66.41,.35,51.22,.23,67.36,.19,51.19,.15,31.52,.01,90.00
2016.09.25-09:00,1.08,114.49,.52,86.01,.23,75.24,.58,36.41,.76,49.01,.79,54.28,.70,50.89,.47,67.85,.33,53.20,.21,68.51,.17,51.70,.14,27.48,.01,90.00
2016.09.25-10:00,.87,129.77,.44,89.88,.23,54.17,.65,37.47,.78,49.91,.79,54.00,.71,49.83,.43,68.45,.31,55.93,.18,67.47,.16,50.87,.14,22.91,.01,90.00
2016.09.25-11:00,.68,152.67,.35,90.31,.28,37.62,.71,40.53,.79,52.22,.78,54.93,.72,50.44,.39,69.20,.31,59.61,.17,63.80,.14,48.45,.13,17.33,.00,90.00
2016.09.25-12:00,.56,181.73,.25,85.44,.35,29.84,.74,44.61,.77,55.52,.76,57.27,.71,52.54,.37,68.92,.31,62.87,.16,58.46,.12,44.74,.12,13.27,.00,90.00
2016.09.25-13:00,.57,217.40,.16,62.21,.43,27.84,.75,49.33,.75,59.43,.74,60.55,.70,55.31,.34,66.15,.29,64.54,.15,52.58,.11,42.55,.13,14.47,.00,90.00
2016.09.25-14:00,.63,246.41,.19,25.20,.51,29.81,.77,54.72,.73,63.57,.71,64.12,.68,58.31,.32,60.84,.27,64.55,.16,47.59,.11,43.45,.13,19.83,.01,90.00
2016.09.25-15:00,.69,270.40,.29,17.11,.60,34.90,.79,60.59,.72,67.26,.69,66.87,.67,60.58,.32,53.42,.26,62.58,.17,45.28,.11,45.32,.13,25.14,.01,90.00
2016.09.25-16:00,.77,289.44,.39,20.93,.68,41.53,.80,66.23,.71,69.91,.68,68.28,.67,61.86,.34,46.41,.26,59.14,.19,45.89,.11,46.79,.12,28.88,.01,90.00
2016.09.25-17:00,.88,304.26,.49,25.66,.74,47.86,.80,70.93,.69,71.10,.65,68.19,.65,62.26,.36,41.69,.25,55.08,.20,48.50,.12,48.37,.12,32.46,.02,90.00
2016.09.25-18:00,.97,318.00,.54,32.04,.77,54.40,.77,75.20,.66,71.08,.63,66.65,.64,61.70,.39,39.06,.25,50.81,.22,51.63,.12,49.06,.12,35.37,.02,90.00
2016.09.25-19:00,1.01,333.94,.56,38.45,.77,60.59,.71,78.49,.62,69.22,.60,63.11,.62,59.64,.43,38.42,.26,48.59,.22,55.27,.12,47.63,.11,35.98,.02,90.00
2016.09.25-20:00,1.11,350.42,.57,44.24,.76,66.29,.64,80.40,.58,65.60,.58,58.00,.61,56.62,.46,39.65,.27,49.38,.22,59.36,.12,44.37,.10,34.23,.01,90.00
2016.09.25-21:00,1.23,5.02,.59,48.03,.74,71.12,.57,80.54,.54,60.83,.57,52.68,.60,53.99,.48,43.35,.27,53.19,.21,63.09,.11,39.51,.09,29.31,.01,90.00
2016.09.25-22:00,1.33,17.10,.61,49.89,.70,74.92,.49,77.68,.53,54.86,.57,47.76,.59,52.10,.48,49.35,.27,59.02,.20,66.21,.11,34.16,.09,21.05,.00,90.00
2016.09.25-23:00,1.39,27.41,.61,52.08,.64,78.79,.43,72.39,.53,49.73,.59,44.39,.60,50.86,.49,55.66,.26,63.67,.19,68.49,.11,30.69,.08,12.67,.00,270.00
2016.09.25-24:00,1.42,37.39,.62,55.27,.59,82.86,.40,66.63,.55,47.37,.63,43.30,.60,50.09,.48,60.27,.25,64.83,.18,69.57,.12,31.33,.08,9.13,.01,270.00
2016.09.26-01:00,1.44,47.12,.64,58.51,.53,85.39,.39,60.86,.58,47.55,.66,44.27,.62,49.91,.46,62.80,.23,62.64,.17,69.18,.12,35.73,.09,12.18,.01,270.00
2016.09.26-02:00,1.45,56.77,.69,61.54,.47,85.07,.41,56.19,.61,49.84,.69,47.18,.63,50.99,.45,63.94,.23,58.38,.17,67.65,.14,41.20,.09,17.76,.00,270.00
2016.09.26-03:00,1.42,66.95,.70,64.49,.42,83.04,.43,53.29,.63,52.87,.71,50.65,.65,52.55,.44,63.32,.24,52.30,.18,65.75,.15,47.33,.10,23.98,.00,90.00
2016.09.26-04:00,1.35,76.71,.68,68.09,.37,80.24,.47,52.02,.66,55.55,.74,53.65,.67,53.92,.45,61.18,.28,46.08,.20,63.39,.16,53.46,.11,30.67,.01,90.00
2016.09.26-05:00,1.23,86.76,.64,71.73,.34,75.18,.52,51.30,.68,57.25,.77,56.11,.70,55.59,.46,60.01,.32,43.58,.21,61.73,.17,57.83,.12,34.90,.01,90.00
2016.09.26-06:00,1.10,96.43,.60,74.79,.33,67.79,.57,50.73,.71,57.86,.80,57.86,.72,57.18,.47,59.59,.35,43.90,.22,61.09,.19,59.84,.14,36.41,.01,90.00
2016.09.26-07:00,.99,105.79,.57,77.42,.34,61.21,.61,50.75,.73,57.81,.81,58.84,.74,58.09,.46,58.47,.36,45.24,.23,61.08,.19,60.46,.16,36.57,.02,90.00
2016.09.26-08:00,.84,114.20,.54,79.45,.37,55.45,.64,50.76,.74,57.08,.80,59.05,.73,58.26,.45,57.08,.36,48.11,.23,61.21,.19,60.09,.16,35.49,.02,90.00
2016.09.26-09:00,.64,123.81,.48,79.83,.39,47.82,.66,49.41,.73,54.93,.78,58.03,.71,57.39,.43,56.34,.36,52.73,.23,61.23,.18,59.12,.16,34.00,.02,90.00
2016.09.26-10:00,.42,138.06,.39,75.96,.42,39.82,.67,47.94,.72,52.65,.75,56.91,.68,56.49,.42,57.44,.36,58.88,.22,60.52,.16,57.06,.15,31.12,.02,90.00
2016.09.26-11:00,.20,167.47,.32,64.43,.47,35.16,.68,48.25,.72,52.08,.73,56.91,.65,56.30,.41,59.59,.35,64.76,.20,58.51,.13,53.24,.14,26.48,.01,90.00
2016.09.26-12:00,.15,256.32,.28,47.07,.52,34.99,.69,50.77,.72,53.62,.70,58.02,.63,56.35,.40,60.86,.33,69.33,.19,55.84,.11,48.18,.12,21.96,.01,90.00
2016.09.26-13:00,.30,299.22,.31,32.23,.58,38.16,.70,55.12,.72,56.96,.68,59.93,.61,56.27,.37,59.78,.29,72.41,.18,53.19,.10,43.84,.11,20.60,.01,90.00
2016.09.26-14:00,.48,317.36,.38,25.29,.63,42.63,.71,60.08,.71,61.00,.66,62.03,.59,55.93,.34,55.81,.24,73.58,.18,51.67,.10,42.58,.11,23.27,.01,90.00
2016.09.26-15:00,.61,330.59,.46,25.97,.68,47.63,.71,64.50,.70,64.38,.63,63.28,.58,55.26,.32,49.94,.20,71.79,.19,52.48,.11,43.72,.10,27.61,.01,90.00
2016.09.26-16:00,.70,343.41,.53,31.39,.73,53.13,.70,67.86,.68,66.25,.62,62.94,.58,54.27,.33,43.83,.18,64.84,.21,55.86,.12,46.27,.10,31.76,.01,90.00
2016.09.26-17:00,.77,356.48,.60,38.52,.77,59.21,.69,70.54,.66,66.99,.61,61.65,.60,53.79,.36,39.43,.17,51.92,.22,60.60,.13,49.50,.10,35.10,.01,90.00
2016.09.26-18:00,.82,8.15,.63,45.26,.78,65.59,.67,72.79,.65,67.26,.62,60.61,.63,54.51,.41,38.17,.20,39.72,.23,65.05,.14,52.21,.10,36.91,.01,90.00
2016.09.26-19:00,.88,15.35,.65,51.01,.77,71.94,.63,74.28,.62,66.83,.62,59.62,.64,55.53,.47,39.18,.24,33.41,.24,68.48,.15,54.39,.10,37.70,.01,90.00
2016.09.26-20:00,.94,21.64,.65,55.05,.73,77.59,.58,74.26,.59,65.14,.61,58.12,.64,56.19,.51,42.33,.29,33.47,.23,71.06,.15,55.18,.10,35.52,.01,90.00
2016.09.26-21:00,1.00,27.60,.65,57.18,.68,82.03,.53,72.15,.56,62.01,.60,55.78,.63,56.26,.53,47.10,.32,37.18,.22,73.12,.15,54.62,.10,30.00,.01,90.00
2016.09.26-22:00,1.04,33.80,.64,58.47,.61,85.38,.49,68.04,.54,57.91,.59,52.78,.61,55.54,.53,52.43,.33,41.56,.19,74.42,.14,53.96,.10,23.96,.00,90.00
2016.09.26-23:00,1.06,39.74,.63,59.39,.52,87.70,.46,62.71,.54,53.75,.59,49.63,.59,53.92,.51,57.49,.32,45.19,.17,74.37,.14,54.44,.10,19.83,.00,270.00
2016.09.26-24:00,1.04,46.61,.61,60.48,.43,88.77,.44,57.85,.54,50.97,.61,47.46,.58,51.94,.48,61.70,.31,48.00,.15,72.06,.13,56.51,.10,17.54,.00,270.00
2016.09.27-01:00,1.02,54.07,.60,61.74,.36,86.84,.45,54.54,.56,50.29,.63,47.19,.58,50.72,.45,65.13,.30,51.38,.14,67.07,.12,59.12,.09,15.84,.01,270.00
2016.09.27-02:00,1.00,60.82,.60,62.55,.30,78.69,.46,51.87,.58,50.75,.64,48.38,.59,50.68,.42,67.87,.29,56.64,.14,61.42,.11,60.95,.09,15.73,.01,270.00
2016.09.27-03:00,.97,67.25,.60,63.78,.27,64.28,.49,50.13,.59,51.83,.66,50.61,.60,51.70,.40,68.96,.29,62.12,.15,57.72,.11,61.77,.10,19.12,.01,270.00
2016.09.27-04:00,.92,75.13,.60,66.94,.29,51.97,.53,50.26,.62,53.36,.68,53.22,.62,53.03,.39,66.75,.30,64.46,.17,56.53,.12,62.71,.11,26.37,.00,90.00
2016.09.27-05:00,.86,84.68,.59,72.14,.34,46.30,.57,51.76,.65,54.90,.70,55.47,.65,54.06,.39,61.67,.30,63.00,.20,57.28,.14,63.73,.12,35.07,.01,90.00
2016.09.27-06:00,.81,94.30,.59,77.14,.40,44.53,.62,53.51,.68,56.11,.72,57.23,.68,55.11,.39,56.53,.30,60.21,.23,59.02,.16,63.48,.14,41.45,.02,90.00
2016.09.27-07:00,.72,103.45,.57,79.51,.48,44.12,.65,55.11,.70,56.98,.73,58.57,.69,56.34,.40,52.86,.30,57.70,.25,60.97,.18,62.28,.16,45.02,.02,90.00
2016.09.27-08:00,.54,110.87,.53,78.05,.54,44.25,.68,56.59,.72,57.57,.73,59.39,.69,57.43,.42,50.62,.31,55.86,.26,62.53,.19,60.89,.17,46.68,.03,90.00
2016.09.27-09:00,.33,114.39,.48,72.77,.60,45.30,.69,58.09,.72,57.95,.72,59.66,.68,58.31,.42,50.13,.30,55.48,.27,63.31,.20,59.19,.17,46.32,.03,90.00
2016.09.27-10:00,.09,94.17,.44,64.04,.64,46.46,.68,58.75,.72,57.39,.70,58.79,.66,58.51,.42,51.18,.29,56.33,.26,63.41,.19,57.85,.16,44.78,.02,90.00
2016.09.27-11:00,.19,332.33,.40,53.68,.66,47.99,.66,58.73,.70,56.06,.67,57.01,.63,58.05,.41,53.05,.28,57.35,.24,62.93,.18,57.43,.14,42.28,.02,90.00
2016.09.27-12:00,.40,332.48,.40,46.00,.67,51.48,.64,59.41,.68,55.46,.65,55.75,.60,57.64,.40,54.70,.27,57.50,.22,62.00,.16,57.61,.12,37.46,.01,90.00
2016.09.27-13:00,.54,339.35,.42,42.64,.67,56.28,.62,60.52,.67,55.89,.64,55.31,.58,57.02,.38,54.50,.25,55.89,.20,61.45,.14,58.92,.10,30.51,.01,90.00
2016.09.27-14:00,.65,346.75,.45,43.11,.67,61.30,.61,61.56,.67,57.31,.63,55.72,.57,56.07,.36,51.74,.22,52.44,.19,62.15,.13,61.68,.08,23.48,.00,90.00
2016.09.27-15:00,.74,354.21,.50,45.14,.67,65.46,.61,62.26,.66,59.53,.63,56.97,.56,55.33,.36,48.08,.21,49.23,.19,64.41,.12,64.48,.08,18.39,.00,270.00
2016.09.27-16:00,.81,2.11,.55,47.28,.66,68.27,.61,62.50,.66,61.98,.63,58.66,.57,55.22,.37,45.88,.21,48.17,.19,67.81,.13,65.97,.09,16.88,.00,270.00
2016.09.27-17:00,.87,11.93,.59,50.18,.65,70.36,.62,62.47,.66,64.18,.63,60.10,.57,55.43,.39,45.27,.22,47.49,.20,71.21,.13,66.97,.10,20.41,.00,90.00
2016.09.27-18:00,.91,21.74,.62,53.68,.63,72.18,.62,62.74,.65,66.15,.63,61.17,.59,55.95,.43,45.57,.24,45.06,.21,73.43,.15,68.25,.12,27.29,.00,90.00
2016.09.27-19:00,.97,31.29,.65,57.19,.61,73.87,.63,63.84,.63,68.05,.62,62.13,.60,56.84,.46,46.50,.27,41.65,.22,74.09,.16,69.66,.13,34.41,.01,90.00
2016.09.27-20:00,1.05,39.20,.67,60.70,.59,75.41,.63,65.39,.61,69.25,.62,62.50,.59,57.52,.48,47.98,.30,39.38,.22,73.52,.17,70.52,.15,39.42,.01,90.00
2016.09.27-21:00,1.12,48.02,.68,63.78,.56,76.26,.61,66.33,.57,68.64,.60,61.44,.58,57.32,.49,50.14,.33,39.42,.21,72.49,.17,70.52,.15,41.77,.02,90.00
2016.09.27-22:00,1.18,55.63,.67,66.19,.53,75.93,.59,66.23,.54,65.73,.58,58.76,.57,56.13,.49,52.90,.34,41.17,.20,71.31,.17,69.98,.15,42.32,.01,90.00
2016.09.27-23:00,1.20,62.60,.65,67.74,.48,74.20,.56,65.31,.51,61.15,.57,55.22,.56,54.44,.47,56.18,.34,43.93,.19,69.36,.15,69.11,.14,42.07,.01,90.00
2016.09.27-24:00,1.18,69.45,.61,68.87,.43,70.98,.53,63.69,.49,55.78,.57,51.57,.55,52.47,.45,59.55,.32,47.59,.17,66.15,.13,68.23,.12,42.06,.01,90.00
2016.09.28-01:00,1.14,76.98,.58,70.21,.39,65.60,.50,61.13,.49,50.48,.57,48.40,.54,50.37,.42,62.53,.31,52.53,.15,62.28,.12,67.12,.10,42.36,.00,90.00
2016.09.28-02:00,1.08,85.16,.56,71.92,.38,58.21,.50,58.14,.51,46.69,.59,46.81,.55,48.98,.38,64.89,.29,58.89,.15,59.64,.11,64.85,.09,41.52,.00,270.00
2016.09.28-03:00,1.01,93.96,.56,73.91,.40,51.59,.51,55.95,.54,45.40,.61,47.45,.56,48.94,.36,65.87,.27,65.44,.16,59.79,.11,61.96,.08,39.06,.00,270.00
2016.09.28-04:00,.93,102.72,.56,76.10,.45,48.15,.54,55.12,.59,46.25,.64,49.94,.58,50.09,.34,64.22,.26,69.46,.17,61.95,.12,60.78,.08,37.83,.00,270.00
2016.09.28-05:00,.84,109.40,.55,78.52,.51,48.12,.57,55.63,.63,48.57,.67,53.49,.61,51.87,.35,59.76,.26,68.66,.20,64.19,.14,62.24,.09,40.41,.00,90.00
2016.09.28-06:00,.73,117.37,.54,80.87,.57,50.54,.60,56.98,.67,51.74,.70,57.37,.65,53.89,.37,54.72,.26,64.49,.22,65.60,.17,64.55,.11,43.97,.01,90.00
2016.09.28-07:00,.59,124.61,.52,82.19,.62,53.36,.62,58.16,.71,54.88,.71,60.79,.68,56.05,.40,51.65,.27,60.24,.25,66.17,.20,66.43,.13,45.98,.01,90.00
2016.09.28-08:00,.43,125.33,.47,81.12,.66,55.38,.64,58.50,.74,57.35,.71,63.30,.70,58.32,.43,51.16,.28,57.09,.26,65.84,.23,67.97,.15,46.79,.02,90.00
2016.09.28-09:00,.27,111.42,.43,75.81,.69,56.67,.65,58.08,.75,59.05,.70,64.70,.69,60.57,.44,52.51,.29,54.78,.27,64.99,.24,69.41,.17,46.51,.02,90.00
2016.09.28-10:00,.22,68.10,.40,66.54,.71,58.01,.66,57.50,.74,60.18,.66,64.93,.67,62.55,.44,54.38,.28,52.47,.27,64.45,.24,70.79,.18,44.69,.03,90.00
2016.09.28-11:00,.34,41.59,.40,57.51,.72,60.36,.66,57.41,.73,61.17,.63,64.12,.63,64.01,.42,55.32,.27,48.76,.26,64.76,.23,72.46,.17,41.31,.02,90.00
2016.09.28-12:00,.48,37.32,.41,51.36,.71,63.58,.65,57.39,.71,61.72,.59,62.00,.59,64.29,.39,54.39,.26,43.52,.24,66.06,.20,75.10,.15,37.40,.02,90.00
2016.09.28-13:00,.62,41.82,.43,49.49,.69,67.79,.64,57.33,.69,61.95,.57,58.83,.55,62.97,.37,51.80,.26,38.58,.22,67.74,.18,78.60,.13,33.55,.01,90.00
2016.09.28-14:00,.73,49.33,.44,51.97,.67,72.80,.64,57.50,.67,62.48,.57,55.86,.52,60.61,.36,49.08,.25,36.60,.20,69.15,.15,81.98,.11,29.95,.00,90.00
2016.09.28-15:00,.80,56.31,.45,55.00,.63,76.96,.64,57.28,.66,63.24,.58,53.92,.51,58.05,.36,48.12,.25,39.25,.18,70.39,.12,83.51,.10,27.59,.00,90.00
2016.09.28-16:00,.84,62.24,.45,56.01,.59,78.69,.64,56.53,.65,64.27,.59,53.60,.52,56.43,.38,49.49,.26,45.50,.17,71.92,.11,81.05,.10,27.36,.00,270.00
2016.09.28-17:00,.87,67.89,.47,55.39,.55,77.26,.66,56.34,.65,66.06,.61,55.16,.53,56.36,.39,51.80,.27,51.77,.18,73.48,.12,75.23,.12,30.50,.00,90.00
2016.09.28-18:00,.84,72.27,.51,54.44,.52,73.19,.68,57.59,.64,68.61,.62,58.04,.53,57.32,.40,53.00,.27,54.48,.19,74.05,.14,70.34,.14,36.54,.01,90.00
2016.09.28-19:00,.82,73.78,.57,54.51,.51,68.51,.70,60.24,.61,71.15,.62,61.15,.54,58.32,.42,52.16,.28,52.50,.21,73.31,.16,68.71,.16,43.46,.01,90.00
2016.09.28-20:00,.85,78.28,.63,56.50,.52,65.32,.70,64.01,.58,72.78,.62,63.74,.54,58.88,.45,50.53,.31,48.35,.22,71.77,.19,68.86,.18,49.11,.02,90.00
2016.09.28-21:00,.85,82.82,.67,59.47,.53,63.49,.69,67.86,.54,72.32,.60,65.13,.54,58.80,.47,49.86,.33,45.65,.23,70.13,.20,69.08,.18,52.38,.02,90.00
2016.09.28-22:00,.82,86.79,.67,62.14,.53,61.59,.67,70.37,.51,68.61,.59,64.64,.54,57.81,.48,50.65,.34,45.49,.23,68.64,.21,69.07,.18,53.65,.02,90.00
2016.09.28-23:00,.77,90.58,.66,64.63,.52,59.25,.63,71.08,.48,62.01,.57,62.44,.54,56.19,.47,52.71,.34,47.46,.22,66.75,.20,69.16,.16,53.63,.01,90.00
2016.09.28-24:00,.70,94.68,.64,67.74,.51,56.46,.59,70.14,.48,54.38,.56,59.32,.54,54.35,.45,55.42,.31,50.84,.20,64.14,.19,69.83,.14,52.99,.01,90.00
2016.09.29-01:00,.64,99.17,.63,72.32,.50,53.39,.55,67.69,.50,47.70,.56,55.93,.54,52.35,.41,58.01,.28,55.01,.18,61.67,.17,71.51,.11,51.45,.00,270.00
2016.09.29-02:00,.58,103.98,.63,77.82,.51,50.43,.52,63.73,.54,43.13,.56,52.94,.54,50.38,.38,60.32,.26,59.74,.17,60.92,.15,74.05,.09,47.28,.01,270.00
2016.09.29-03:00,.52,108.26,.62,82.95,.54,48.09,.50,59.00,.58,41.26,.57,51.16,.54,49.13,.36,62.49,.24,64.10,.16,62.42,.14,76.88,.07,39.43,.01,270.00
2016.09.29-04:00,.47,110.46,.60,86.82,.58,47.26,.51,55.16,.62,42.31,.58,51.21,.56,49.18,.35,64.05,.23,66.54,.16,65.28,.14,79.17,.06,31.95,.01,270.00
2016.09.29-05:00,.41,111.41,.57,89.36,.64,48.59,.53,53.39,.67,45.82,.61,52.99,.59,50.48,.35,64.12,.23,66.15,.17,68.16,.15,80.01,.08,30.24,.01,270.00
2016.09.29-06:00,.36,112.28,.52,91.00,.69,51.63,.56,53.15,.71,50.55,.64,55.66,.62,52.54,.36,62.14,.23,62.59,.20,70.25,.17,79.55,.10,33.37,.00,270.00
2016.09.29-07:00,.30,111.18,.47,91.58,.73,55.31,.59,53.33,.75,55.39,.67,58.60,.66,55.27,.38,58.83,.24,56.94,.22,71.32,.19,78.31,.13,37.23,.01,90.00
2016.09.29-08:00,.26,106.52,.42,89.85,.76,58.65,.62,53.39,.78,59.85,.70,61.66,.70,58.89,.40,55.81,.26,51.17,.24,71.22,.21,76.73,.16,40.14,.02,90.00
2016.09.29-09:00,.23,98.27,.36,83.47,.78,61.31,.66,53.24,.79,63.63,.70,64.64,.71,63.27,.41,54.02,.28,46.34,.26,69.92,.23,75.41,.19,42.40,.02,90.00
2016.09.29-10:00,.19,83.09,.32,71.26,.78,63.62,.68,53.01,.78,66.33,.69,66.87,.70,67.66,.42,52.98,.30,42.50,.26,67.79,.23,74.75,.20,44.02,.03,90.00
2016.09.29-11:00,.18,62.20,.31,57.71,.76,66.20,.71,52.87,.76,67.62,.66,67.65,.66,71.21,.41,51.73,.31,39.66,.25,65.64,.23,74.83,.20,44.61,.03,90.00
2016.09.29-12:00,.18,55.64,.33,49.73,.73,69.76,.73,53.42,.72,67.81,.63,67.02,.61,73.51,.40,50.08,.31,38.24,.23,64.05,.21,75.44,.19,43.59,.03,90.00
2016.09.29-13:00,.18,58.54,.36,46.17,.68,73.67,.73,54.19,.68,66.87,.59,64.80,.54,73.75,.38,48.08,.30,38.31,.21,63.30,.18,76.66,.16,41.68,.02,90.00
2016.09.29-14:00,.17,65.87,.37,44.88,.62,77.03,.73,54.92,.65,64.99,.56,61.39,.49,71.18,.38,46.25,.29,39.82,.19,63.55,.16,78.57,.14,40.23,.01,90.00
2016.09.29-15:00,.18,77.89,.40,46.36,.56,79.14,.74,56.27,.62,63.38,.56,58.98,.45,66.96,.38,46.33,.28,43.28,.17,64.33,.13,79.83,.12,38.98,.01,90.00
2016.09.29-16:00,.19,90.48,.43,47.34,.50,78.23,.75,57.79,.62,62.60,.57,58.64,.44,62.90,.39,48.73,.27,48.68,.15,65.59,.12,78.88,.11,38.53,.00,90.00
2016.09.29-17:00,.18,101.98,.47,46.80,.44,72.23,.75,59.35,.61,62.79,.59,60.19,.46,59.96,.41,52.14,.28,54.83,.16,67.35,.12,75.44,.11,39.61,.00,270.00
2016.09.29-18:00,.17,105.53,.53,46.62,.42,61.37,.75,61.54,.61,64.03,.61,63.03,.48,58.18,.43,54.92,.29,59.46,.17,68.78,.14,71.57,.13,42.29,.00,270.00
2016.09.29-19:00,.16,92.73,.59,47.97,.45,50.69,.75,64.43,.61,65.77,.61,66.07,.50,56.87,.45,56.15,.30,60.65,.20,69.01,.17,69.56,.15,46.33,.00,90.00
2016.09.29-20:00,.17,74.06,.66,51.33,.52,45.19,.74,67.74,.60,67.26,.59,68.24,.51,55.46,.46,56.00,.30,58.08,.22,68.17,.20,69.67,.17,50.71,.01,90.00
2016.09.29-21:00,.21,63.28,.70,56.25,.60,44.76,.72,70.88,.59,67.86,.58,68.65,.53,54.03,.47,55.56,.31,53.66,.24,67.01,.22,70.81,.18,53.85,.01,90.00
2016.09.29-22:00,.25,57.52,.72,61.42,.67,46.56,.69,72.92,.59,66.92,.56,66.97,.55,52.98,.48,55.94,.32,50.21,.25,66.16,.23,72.07,.18,54.73,.01,90.00
2016.09.29-23:00,.29,51.90,.71,65.89,.70,48.07,.65,72.97,.58,64.04,.55,63.49,.57,52.43,.48,57.40,.32,48.59,.24,65.92,.23,73.49,.17,53.56,.01,90.00
2016.09.29-24:00,.33,47.76,.67,70.05,.70,48.84,.59,70.51,.57,59.60,.54,58.84,.58,52.34,.46,59.54,.31,48.04,.22,66.14,.21,75.44,.16,50.80,.00,90.00
2016.09.30-01:00,.36,46.56,.63,74.37,.71,49.25,.53,65.32,.56,54.39,.53,53.86,.58,52.57,.42,61.94,.28,48.00,.19,66.64,.19,78.47,.13,46.95,.00,270.00
2016.09.30-02:00,.39,49.50,.58,79.08,.72,50.59,.51,58.58,.58,50.17,.55,50.25,.59,53.51,.38,64.37,.26,48.70,.16,67.08,.16,82.63,.10,41.34,.01,270.00
2016.09.30-03:00,.43,54.44,.53,83.48,.73,52.90,.51,52.28,.61,47.89,.58,48.76,.59,55.14,.34,66.33,.23,50.41,.14,66.95,.13,87.12,.08,34.03,.01,270.00
2016.09.30-04:00,.45,58.98,.47,86.69,.74,55.56,.53,47.67,.65,47.50,.61,49.15,.60,57.19,.31,67.15,.22,53.06,.13,66.46,.12,90.03,.07,28.19,.01,270.00
2016.09.30-05:00,.46,62.87,.39,87.09,.74,58.32,.57,45.35,.68,48.83,.65,51.21,.62,59.55,.30,66.16,.22,55.95,.13,66.37,.12,89.06,.08,27.41,.01,270.00
2016.09.30-06:00,.45,66.71,.32,82.83,.73,61.19,.62,45.29,.72,51.39,.69,54.44,.64,62.03,.30,63.05,.23,57.76,.15,66.90,.13,84.47,.09,31.23,.00,270.00
2016.09.30-07:00,.38,70.55,.28,72.61,.72,64.01,.67,46.97,.76,54.59,.73,58.26,.66,64.43,.32,58.30,.24,57.22,.17,67.18,.15,79.02,.12,36.64,.01,90.00
2016.09.30-08:00,.30,66.92,.28,57.90,.71,66.32,.73,49.68,.79,58.09,.76,62.37,.68,66.89,.34,52.92,.26,53.88,.19,66.54,.18,75.09,.16,41.69,.02,90.00
2016.09.30-09:00,.28,55.53,.33,45.10,.70,67.87,.77,52.79,.81,61.74,.77,66.73,.68,69.71,.37,48.27,.28,48.61,.21,64.95,.20,73.12,.18,45.59,.03,90.00
2016.09.30-10:00,.36,55.49,.41,37.85,.68,68.51,.80,55.40,.82,64.98,.76,70.77,.66,72.72,.41,45.17,.30,43.36,.23,62.69,.22,72.57,.20,48.41,.04,90.00
2016.09.30-11:00,.38,50.55,.49,35.61,.64,68.68,.81,57.09,.81,67.26,.72,73.58,.62,75.16,.44,43.57,.32,39.73,.23,60.11,.22,72.90,.20,50.17,.04,90.00
2016.09.30-12:00,.41,47.86,.55,37.56,.60,69.09,.81,58.23,.78,68.45,.67,74.50,.57,76.15,.46,43.39,.34,38.40,.22,57.43,.21,73.42,.19,50.47,.03,90.00
2016.09.30-13:00,.43,46.92,.59,41.65,.55,69.57,.80,58.77,.74,68.42,.61,73.02,.51,74.88,.47,44.21,.33,38.89,.21,55.50,.18,74.41,.16,49.44,.02,90.00
2016.09.30-14:00,.46,45.30,.61,45.96,.49,68.62,.77,58.26,.69,66.95,.55,68.80,.45,70.43,.46,45.66,.32,40.64,.19,55.14,.16,76.13,.14,47.94,.01,90.00
2016.09.30-15:00,.51,44.69,.64,51.69,.45,65.80,.76,57.79,.66,65.12,.52,63.33,.41,63.70,.45,48.46,.29,43.64,.16,56.19,.13,78.23,.11,45.68,.00,90.00
2016.09.30-16:00,.57,45.54,.66,58.46,.44,61.13,.77,58.22,.66,63.99,.53,59.02,.42,57.67,.44,53.17,.27,48.34,.15,58.36,.12,79.52,.10,42.62,.01,270.00
2016.09.30-17:00,.62,46.18,.65,64.33,.44,54.18,.78,59.40,.66,63.80,.56,57.03,.45,54.22,.44,58.62,.27,54.00,.15,61.48,.11,78.73,.09,40.74,.01,270.00
2016.09.30-18:00,.65,49.06,.61,68.46,.48,47.19,.78,61.65,.66,64.71,.60,57.30,.50,53.37,.45,63.03,.28,58.57,.16,64.83,.12,76.13,.10,41.61,.01,270.00
2016.09.30-19:00,.63,53.82,.58,70.68,.55,43.72,.78,64.71,.65,66.07,.63,58.74,.55,53.97,.45,65.43,.28,60.59,.18,67.33,.14,73.22,.12,44.31,.01,270.00
2016.09.30-20:00,.66,56.91,.56,72.73,.63,44.50,.78,67.85,.65,66.78,.65,60.11,.59,54.99,.45,65.68,.29,59.48,.20,68.25,.18,71.56,.15,47.44,.00,90.00
2016.09.30-21:00,.70,62.47,.55,76.71,.70,48.17,.77,70.54,.65,66.03,.67,60.84,.62,55.97,.45,63.93,.29,55.10,.22,67.49,.21,71.64,.18,50.73,.01,90.00
2016.09.30-22:00,.73,69.52,.54,82.20,.75,52.91,.75,72.34,.65,63.83,.69,61.13,.65,56.99,.45,61.10,.30,49.34,.23,65.63,.22,72.75,.19,53.25,.01,90.00
2016.09.30-23:00,.73,75.38,.51,86.68,.77,56.69,.72,72.83,.65,60.93,.69,61.25,.66,58.17,.45,58.50,.32,45.02,.22,63.71,.22,74.06,.19,53.97,.01,90.00
2016.09.30-24:00,.70,78.37,.45,88.71,.75,59.04,.66,71.99,.64,58.03,.69,61.32,.66,59.50,.44,56.76,.32,42.54,.21,62.14,.21,75.36,.18,52.57,.01,90.00
2016.10.01-01:00,.64,79.38,.37,88.06,.73,59.99,.61,69.38,.64,54.99,.68,61.07,.64,60.64,.42,55.97,.31,40.87,.18,60.66,.18,77.30,.15,50.06,.01,90.00
2016.10.01-02:00,.57,79.38,.28,83.33,.69,59.95,.56,64.50,.65,51.89,.67,60.51,.61,61.58,.38,56.73,.29,40.24,.15,58.81,.15,80.58,.13,47.18,.00,90.00
2016.10.01-03:00,.51,78.90,.21,71.25,.67,60.39,.55,58.55,.68,49.94,.67,60.30,.59,62.67,.35,59.25,.27,41.63,.12,55.84,.12,84.80,.10,42.82,.00,270.00
2016.10.01-04:00,.45,78.21,.19,52.67,.65,62.43,.55,53.11,.71,49.51,.67,60.50,.58,63.54,.33,62.12,.26,44.89,.11,52.75,.10,88.32,.08,37.23,.00,270.00
2016.10.01-05:00,.42,77.19,.21,39.04,.62,65.84,.58,48.86,.75,50.31,.69,61.06,.58,63.73,.31,63.56,.25,49.26,.10,52.01,.09,87.21,.07,33.77,.00,270.00
2016.10.01-06:00,.41,75.54,.27,36.02,.60,69.14,.62,46.20,.79,52.16,.71,62.24,.59,63.55,.31,62.67,.25,53.54,.12,53.95,.09,80.50,.08,35.75,.00,90.00
2016.10.01-07:00,.43,73.72,.34,39.69,.59,71.50,.68,45.89,.82,55.23,.73,64.46,.62,63.93,.32,59.68,.26,56.12,.14,56.05,.11,73.12,.11,40.28,.01,90.00
2016.10.01-08:00,.44,70.31,.42,44.68,.58,72.69,.74,47.55,.85,58.97,.75,67.26,.64,65.09,.34,55.22,.27,55.37,.16,57.01,.14,68.99,.15,44.88,.02,90.00
2016.10.01-09:00,.46,65.18,.48,48.85,.57,72.90,.80,50.26,.86,62.60,.75,69.85,.66,66.65,.37,49.98,.29,51.09,.19,56.92,.18,68.14,.18,49.19,.03,90.00
2016.10.01-10:00,.50,59.16,.53,52.40,.55,72.28,.84,53.54,.86,65.84,.74,71.82,.66,68.47,.41,45.53,.31,45.69,.21,55.99,.20,68.78,.20,52.45,.03,90.00
2016.10.01-11:00,.55,52.70,.56,55.01,.53,70.36,.88,56.67,.84,68.20,.71,72.84,.65,70.20,.45,42.85,.34,41.79,.22,54.78,.21,69.85,.21,54.40,.03,90.00
2016.10.01-12:00,.61,47.75,.57,58.03,.51,67.66,.89,59.60,.81,69.62,.66,72.62,.62,71.30,.48,41.72,.35,39.59,.22,53.51,.20,71.01,.19,55.05,.03,90.00
2016.10.01-13:00,.69,44.84,.57,61.89,.48,64.75,.88,62.12,.77,69.84,.61,70.54,.57,70.89,.49,41.46,.35,38.22,.21,52.41,.18,72.72,.17,54.98,.02,90.00
2016.10.01-14:00,.77,42.61,.54,65.65,.45,60.78,.85,63.47,.73,68.38,.56,65.80,.51,67.98,.49,41.91,.34,37.47,.19,52.10,.16,75.72,.14,55.11,.01,90.00
2016.10.01-15:00,.87,42.53,.52,70.26,.43,56.60,.83,64.19,.70,66.10,.55,59.91,.47,63.56,.48,44.61,.31,38.56,.17,52.41,.13,79.18,.11,53.39,.00,90.00
2016.10.01-16:00,.93,46.03,.49,75.34,.43,52.41,.81,64.68,.69,63.94,.56,55.29,.47,59.55,.47,49.99,.29,42.63,.14,54.02,.11,81.99,.08,46.93,.01,270.00
2016.10.01-17:00,.89,52.56,.44,79.31,.45,48.13,.80,65.39,.69,62.52,.60,52.91,.49,56.99,.47,56.55,.29,48.95,.13,57.85,.09,82.41,.07,36.96,.02,270.00